Regional Weather Roundup
Issued by NWS

Home | Current Version | Previous Version | Graphics & Text | Print | Product List | Glossary On
Versions: 1 2 3 4 5 6 7 8 9 10 11 12 13 14 15 16 17 18 19 20 21 22 23 24 25 26 27 28 29 30 31 32 33 34 35 36 37 38 39 40 41 42 43 44 45 46 47 48 49 50
000
ASUS43 KBIS 052010
RWRND

NORTH DAKOTA REGIONAL WEATHER ROUNDUP
NATIONAL WEATHER SERVICE BISMARCK ND
300 PM CDT SUN JUL 05 2015

NOTE: "FAIR" INDICATES FEW OR NO CLOUDS BELOW 12,000 FEET WITH NO
SIGNIFICANT WEATHER AND/OR OBSTRUCTIONS TO VISIBILITY.


NDZ001>003-009>011-017-052100-
NORTHWEST NORTH DAKOTA

CITY           SKY/WX    TMP DP  RH WIND       PRES   REMARKS
WILLISTON      MOSUNNY   76  48  37 N16G23    29.97S
MINOT          CLOUDY    74  60  61 NW14      29.89R HAZE
MINOT AFB      SUNNY     77  67  70 NW13      29.88R
$$

NDZ018>021-031>035-040>046-052100-
SOUTHWEST NORTH DAKOTA

CITY           SKY/WX    TMP DP  RH WIND       PRES   REMARKS
BISMARCK       PTSUNNY   79  63  57 N16G26    29.85R
DICKINSON      CLOUDY    70  59  68 N18G30    29.91F
GARRISON         N/A     76  59  55 N16       29.90R
HETTINGER ARPT CLOUDY    73  60  63 N17G25    29.94R
$$

NDZ004>008-012>016-024-026-027-054-052100-
NORTHEAST NORTH DAKOTA

CITY           SKY/WX    TMP DP  RH WIND       PRES   REMARKS
GRAND FORKS    CLOUDY    70  66  88 W7        29.77R
GRND FRKS AFB  CLOUDY    69  66  92 NW7       29.77R
DEVILS LAKE    PTSUNNY   73  63  68 N9        29.81S
$$

NDZ022-023-025-028>030-036>039-047>053-052100-
SOUTHEAST NORTH DAKOTA

CITY           SKY/WX    TMP DP  RH WIND       PRES   REMARKS
FARGO          CLOUDY    82  69  64 SW3       29.71F
JAMESTOWN      CLOUDY    75  66  73 NW13      29.79R
$$




USA.gov is the U.S. government's official web portal to all federal, state and local government web resources and services.